Theta_e
353 361 362 364 363 363 364 364 365 365 363 361 360 360 361 361 361 362 362 362 363 363 361 360 359 362 361 356 357 357 357 357 357 355 355 355 353 352 351 350 349 346 348
357 361 362 364 363 362 363 363 364 364 364 364 364 363 361 361 362 362 362 362 363 362 361 359 357 359 358 356 356 357 357 358 359 358 357 357 356 353 350 350 347 349 349
357 362 363 364 363 363 362 362 362 363 364 364 364 364 363 362 362 362 362 361 362 361 360 359 357 356 356 356 356 355 356 357 359 358 357 352 352 354 351 349 349 350 350
359 363 361 364 363 361 361 361 361 362 362 363 363 363 363 362 361 361 361 361 361 360 359 357 356 355 354 354 355 355 355 355 356 356 351 350 347 354 351 350 350 350 350
360 363 364 364 363 361 360 360 361 361 361 361 361 361 361 361 361 361 361 362 360 359 357 356 355 353 352 352 353 354 354 354 354 351 344 347 350 351 353 353 353 352 351
359 361 364 364 363 361 359 359 359 360 361 360 360 360 360 360 360 360 361 361 360 359 357 357 356 354 352 352 353 353 353 354 353 352 355 354 353 356 355 355 353 351 351
358 360 363 363 363 362 359 359 359 360 360 360 360 359 359 359 360 361 361 360 361 360 359 357 355 354 352 352 354 354 354 355 354 355 353 357 357 352 357 355 354 353 351
356 359 362 363 362 362 361 360 360 359 359 359 359 359 359 359 359 359 359 359 359 358 358 356 355 353 353 352 351 353 353 353 352 350 353 355 357 352 356 356 354 351 350
357 358 361 361 362 361 361 360 360 359 358 358 358 358 359 359 359 359 359 359 359 359 358 356 354 353 352 351 351 351 351 351 350 350 351 353 353 352 356 356 353 351 351
356 357 359 360 360 361 360 360 360 359 358 357 357 358 358 358 358 358 358 359 359 359 358 356 355 353 352 351 351 351 350 350 346 348 351 352 351 356 357 356 353 351 351
353 356 358 360 360 359 358 359 359 358 358 357 356 356 355 351 354 355 357 358 359 359 358 357 356 354 353 351 351 350 349 342 343 345 347 352 347 355 357 359 355 352 351
355 356 356 360 359 358 356 359 357 358 358 357 356 357 354 354 353 351 354 357 357 358 359 358 357 355 353 347 346 348 344 342 343 342 344 349 347 349 356 360 357 354 351
355 359 359 360 361 358 357 359 357 358 356 357 356 355 355 353 353 351 351 352 353 355 353 354 354 353 352 350 346 345 342 341 340 340 343 348 347 348 351 359 359 355 353
324 339 359 361 361 360 360 358 358 357 357 356 355 355 354 351 350 350 350 351 352 350 351 352 350 352 353 352 350 347 345 343 339 338 340 346 346 346 349 356 360 357 354
324 346 355 361 357 356 359 359 357 355 355 355 354 354 352 351 349 351 350 352 351 350 350 350 349 349 348 348 349 348 346 345 344 342 338 344 344 346 347 355 361 359 354
320 329 356 358 360 360 357 359 355 356 356 356 355 355 355 354 354 353 350 350 350 350 350 350 349 349 348 347 346 347 347 346 346 345 342 341 343 344 347 353 360 360 357
320 335 356 358 361 360 359 356 353 355 355 355 355 358 356 356 356 353 353 353 353 354 355 353 349 350 347 345 348 348 348 348 347 347 346 343 341 342 345 350 357 360 358
320 323 352 353 357 358 358 357 356 356 356 356 358 358 355 356 356 354 351 349 351 353 352 352 351 347 345 347 347 346 347 348 348 348 347 346 342 339 341 348 353 357 358
319 322 337 354 354 354 354 354 354 355 353 354 355 352 350 350 350 350 348 347 351 347 347 347 348 349 345 345 347 348 347 347 349 347 347 347 344 342 339 343 351 352 356
319 325 334 340 347 349 349 345 346 343 336 336 337 339 342 344 342 345 342 344 345 342 342 343 344 345 347 346 342 343 347 348 348 348 348 347 345 345 344 344 347 352 352
325 328 332 335 336 338 335 330 329 328 332 333 335 337 337 338 338 340 337 338 340 340 342 344 342 343 341 346 345 340 343 347 347 347 348 347 347 346 347 346 348 349 352
327 329 330 331 333 332 332 333 333 332 332 332 333 335 334 334 335 334 335 333 337 335 341 342 340 336 337 344 337 337 330 337 343 345 346 346 348 348 346 348 349 351 352
326 327 327 327 329 330 332 331 330 330 329 328 329 331 331 331 330 332 334 334 337 339 333 340 340 337 333 339 342 335 329 327 334 341 345 346 347 347 349 349 349 350 352
321 322 322 323 323 325 329 328 329 324 322 325 324 325 326 327 327 328 331 332 333 332 335 337 340 342 336 331 341 341 342 340 331 327 338 343 346 345 349 350 347 349 351
319 318 320 321 321 322 323 323 320 320 321 320 320 322 324 324 324 323 325 327 329 328 332 335 338 341 341 338 337 335 336 337 337 329 325 332 336 342 344 345 345 344 344
315 316 318 319 319 320 320 320 320 318 317 316 317 316 316 317 319 321 322 323 325 328 329 331 336 338 339 338 337 336 335 332 332 330 329 330 329 336 339 336 336 336 335
Wind_Speed
9 15 16 13 12 9 11 15 14 14 14 14 15 15 16 16 15 15 14 13 11 11 11 10 10 10 11 10 10 11 10 11 12 12 11 10 9 9 8 8 8 6 7
15 16 17 14 14 12 10 14 14 13 13 13 13 14 15 15 14 13 12 12 10 11 10 9 8 9 9 10 11 11 11 11 11 11 11 9 9 9 8 8 5 7 6
16 14 16 13 14 13 12 13 14 13 13 12 13 13 14 14 13 13 12 11 10 10 8 7 7 7 7 7 9 10 10 10 10 10 9 6 7 9 8 7 6 6 6
15 14 14 14 13 14 14 13 13 13 13 13 13 13 14 13 12 13 11 10 10 9 7 7 6 6 6 7 8 9 9 9 9 9 8 6 6 9 7 7 6 5 6
14 12 13 13 13 14 14 14 13 13 13 12 12 12 12 12 11 11 10 9 8 7 6 6 6 5 5 6 6 6 7 7 9 9 5 5 4 8 8 8 8 7 8
14 13 13 12 12 12 13 14 13 13 13 12 12 11 11 11 11 10 9 7 8 7 6 5 5 5 5 6 6 6 6 7 8 6 5 5 6 8 9 8 6 4 7
12 10 12 10 10 11 12 13 13 13 12 12 12 11 11 10 9 9 8 8 7 6 5 4 3 3 3 5 6 6 6 7 9 6 6 6 7 6 9 8 7 6 7
11 10 10 10 9 9 10 11 11 11 11 12 12 11 11 10 9 9 8 7 6 5 4 4 3 3 2 3 5 6 7 7 8 7 7 7 5 10 12 9 8 7 8
9 9 9 9 9 8 8 8 9 10 10 10 10 10 10 10 9 9 8 7 6 5 5 4 3 3 3 4 6 6 7 8 10 6 7 5 3 10 13 10 10 9 9
8 8 8 8 9 8 9 9 9 9 8 7 8 8 8 8 7 7 6 7 7 6 6 6 5 4 5 5 6 7 7 9 12 9 7 5 4 9 11 11 11 11 11
6 8 8 8 8 8 8 8 9 10 8 7 6 5 6 6 7 8 5 4 7 7 7 7 7 7 7 8 8 8 8 7 9 8 6 2 6 10 12 11 12 12 13
8 9 9 10 10 8 6 8 8 8 7 7 7 6 6 5 5 5 5 7 8 8 8 7 7 8 8 7 6 8 7 8 8 9 8 5 10 11 14 13 14 13 14
7 8 10 11 11 10 8 6 5 4 5 6 7 6 5 4 3 4 4 5 6 8 8 7 8 7 8 7 7 7 7 8 7 8 10 8 11 13 14 16 16 15 15
6 6 10 11 10 10 7 7 8 6 6 5 7 8 6 4 4 4 4 5 5 5 8 8 6 7 10 11 12 11 11 9 7 7 9 11 13 15 16 16 18 16 16
6 5 7 9 9 8 9 6 6 7 6 5 6 6 5 5 4 4 4 6 6 6 7 7 8 8 8 11 12 12 13 12 12 8 8 11 15 16 16 16 19 19 19
6 7 8 11 12 12 9 9 6 6 5 6 5 5 8 6 6 5 6 7 6 7 6 7 8 8 9 9 11 13 14 13 13 13 10 10 14 17 16 18 20 21 20
6 3 6 8 9 10 10 9 6 5 4 4 4 5 6 5 5 6 6 7 7 7 10 9 8 9 9 9 13 13 12 14 13 14 12 11 11 16 17 18 20 22 21
7 6 6 6 10 10 8 7 5 4 4 3 2 2 4 5 5 6 6 7 7 7 7 8 9 8 8 10 11 11 11 12 14 14 12 12 11 10 12 19 20 22 23
5 4 4 5 8 8 8 7 6 6 4 4 4 3 3 3 3 4 5 7 7 7 8 9 10 10 9 9 11 11 10 11 12 11 14 14 14 12 10 12 20 23 23
4 5 6 6 7 8 6 6 5 5 6 5 5 4 4 2 2 2 4 7 8 8 9 10 12 12 11 11 9 11 12 12 11 11 12 12 13 14 14 14 11 13 22
10 9 9 10 8 6 5 5 5 5 4 4 4 4 4 2 1 2 3 5 7 8 10 12 12 12 11 11 9 9 12 14 15 12 12 12 13 14 14 13 11 10 11
14 13 13 12 10 8 5 4 4 4 4 4 3 3 4 5 4 4 5 6 7 7 10 11 11 9 10 11 6 7 6 10 11 11 11 12 15 12 13 15 15 14 11
14 13 13 12 11 11 9 6 6 4 3 2 1 1 3 6 6 5 7 7 8 8 9 9 8 9 10 11 10 7 5 7 8 6 8 10 12 11 12 13 13 12 13
11 11 12 11 11 10 8 8 9 5 3 3 4 4 6 6 8 9 10 9 9 8 10 10 11 10 7 11 9 9 14 13 8 10 6 6 7 10 12 8 7 10 12
8 9 9 10 10 9 8 7 4 3 1 3 4 7 8 8 10 11 11 11 11 9 10 11 12 12 8 9 11 10 8 9 10 9 11 11 9 8 7 9 8 6 8
6 6 6 8 8 7 6 6 5 3 2 3 5 6 7 8 9 11 13 12 12 11 12 10 11 12 12 11 9 9 11 9 9 9 11 14 12 13 6 4 3 2 4
Wind_Direction
159 146 156 158 152 151 146 121 117 122 130 138 141 139 134 137 140 143 146 146 146 145 147 145 143 137 136 126 125 134 136 136 138 141 140 138 139 141 141 144 149 141 141
147 152 157 155 154 157 136 121 120 120 124 131 134 134 136 139 143 146 148 149 154 157 151 148 143 137 136 133 134 140 145 145 148 149 147 150 156 158 160 161 171 117 149
149 153 157 156 154 149 136 129 125 126 128 131 135 136 139 143 146 148 152 155 161 160 154 149 142 141 140 141 147 152 156 155 156 157 161 164 152 169 172 170 167 162 161
150 154 158 156 151 146 143 140 135 133 133 135 138 138 141 144 150 153 156 160 163 162 160 157 153 149 149 158 164 166 166 163 164 169 186 169 157 171 172 172 176 178 178
154 157 155 155 150 148 148 146 142 139 137 138 138 139 143 145 149 152 155 161 166 166 166 164 157 151 160 167 174 175 178 178 179 195 185 186 207 156 183 181 184 191 193
156 161 149 152 148 149 151 150 148 145 144 141 143 145 147 149 149 152 155 161 174 175 171 172 160 160 174 178 185 195 197 198 200 207 217 194 247 140 194 193 198 199 191
154 160 157 147 146 151 155 154 156 152 146 146 148 151 150 148 150 152 157 166 179 183 182 173 166 172 188 202 205 212 220 219 233 220 232 253 253 194 206 204 191 187 194
153 158 155 150 153 156 159 158 158 157 152 152 153 155 154 153 157 159 162 172 179 191 197 190 175 184 224 233 237 240 246 248 232 250 257 275 276 209 207 193 188 182 194
153 160 162 168 172 160 155 159 159 160 160 158 160 160 157 161 165 165 167 177 187 189 198 204 199 207 217 238 251 255 262 262 267 252 266 276 148 213 202 194 193 188 196
163 173 174 174 178 187 173 164 161 163 162 159 163 164 165 165 172 178 184 193 200 204 211 214 218 218 222 230 245 255 258 263 254 258 255 269 268 210 207 201 202 195 195
179 189 188 186 186 179 186 174 165 165 162 159 169 164 171 202 200 199 200 208 227 224 226 230 227 223 225 229 231 239 250 245 251 255 259 198 267 240 226 213 213 203 199
198 200 203 194 188 179 187 185 183 173 182 181 183 191 204 202 220 252 250 232 242 254 255 248 246 245 239 250 224 217 236 243 249 253 256 238 254 250 241 226 214 207 206
210 208 203 198 191 186 183 170 172 196 177 182 182 184 204 211 226 241 252 245 250 229 256 241 248 249 260 261 253 247 242 240 245 249 253 239 250 252 251 243 220 207 207
219 224 206 199 190 189 176 187 179 178 190 191 191 187 195 204 213 247 254 250 242 254 260 255 259 272 275 268 266 265 256 250 245 248 254 242 248 251 252 245 227 213 209
236 220 193 186 187 186 185 185 189 192 201 198 195 197 204 213 223 239 254 262 257 257 248 248 254 255 262 271 268 265 264 263 262 259 259 241 241 242 246 243 229 217 213
268 249 181 182 183 184 186 189 195 198 194 203 204 208 208 222 231 248 252 251 253 256 262 266 265 265 261 263 266 264 261 263 261 261 259 263 235 240 233 232 228 218 215
252 230 192 185 183 188 183 180 186 202 183 198 210 219 234 242 258 282 289 288 292 280 277 262 259 261 261 262 265 259 257 256 256 256 256 254 257 230 237 229 226 222 216
245 214 181 188 179 176 176 180 172 168 177 197 204 214 225 241 250 264 283 290 297 285 282 274 265 251 254 258 259 257 255 253 255 255 255 258 250 254 226 230 227 224 219
245 221 188 169 165 154 148 152 151 146 153 155 166 154 154 192 219 254 268 291 297 291 282 274 270 261 259 259 265 266 266 262 258 255 257 252 246 245 243 228 221 226 221
91 101 105 109 123 127 121 116 114 126 126 122 116 109 106 82 52 309 301 300 300 294 287 283 278 278 268 267 264 279 273 264 258 256 253 249 243 243 239 240 236 228 225
84 96 91 99 95 111 118 118 120 110 96 95 83 68 58 26 4 296 291 292 295 294 293 289 286 280 269 264 272 269 270 264 259 251 252 251 240 236 236 231 231 233 213
83 82 81 79 76 73 77 70 59 67 63 56 36 4 356 330 309 305 310 307 302 300 294 290 286 280 273 267 259 276 279 273 247 247 254 247 245 241 235 232 233 225 228
75 80 80 75 71 68 73 88 91 98 115 116 43 289 310 299 309 309 303 303 302 302 301 291 272 272 278 271 234 242 267 249 294 257 251 252 247 239 233 236 234 226 221
86 89 85 79 74 66 67 76 75 67 37 13 311 319 310 324 334 330 318 310 303 300 295 291 290 272 261 267 258 249 257 272 277 278 243 249 255 247 248 240 229 227 220
102 98 98 95 84 75 72 71 78 78 42 333 321 323 327 330 327 321 315 310 300 294 292 292 294 290 265 266 266 266 238 252 252 252 269 264 248 250 251 246 235 212 209
105 108 111 107 97 90 82 76 75 72 4 326 328 316 317 315 312 311 311 304 299 292 285 288 291 288 285 276 263 252 253 250 250 240 252 263 268 270 246 259 243 201 168